This is the latest recevied weather packets stored in our database for station/object W6SNO-1. If no packets are shown the sender has not sent any weather packets the latest 10 day(s).
| Time | Temp. | Humidity | Pressure | Rain* | Wind** | Luminosity | Snow |
|---|---|---|---|---|---|---|---|
| 1778166669 | 12.78° C | 93% | 1019.3 hPa | 0 mm | - | 51 W/m² | - |
| 1778166361 | 12.78° C | 94% | 1019.4 hPa | 0 mm | - | 46 W/m² | - |
| 1778166058 | 12.78° C | 94% | 1019.4 hPa | 0 mm | - | 42 W/m² | - |
| 1778165752 | 12.78° C | 94% | 1019.4 hPa | 0 mm | - | 39 W/m² | - |
| 1778165451 | 12.78° C | 94% | 1019.5 hPa | 0 mm | - | 35 W/m² | - |
| 1778165147 | 12.78° C | 94% | 1019.5 hPa | 0 mm | - | 32 W/m² | - |
| 1778164845 | 12.78° C | 94% | 1019.5 hPa | 0 mm | - | 29 W/m² | - |
| 1778164541 | 12.78° C | 94% | 1019.3 hPa | 0 mm | - | 28 W/m² | - |
| 1778164239 | 12.78° C | 94% | 1019.2 hPa | 0 mm | - | 25 W/m² | - |
| 1778163938 | 12.78° C | 94% | 1019.2 hPa | 0 mm | - | 23 W/m² | - |
| 1778163631 | 12.78° C | 94% | 1019.2 hPa | 0 mm | - | 21 W/m² | - |
| 1778163327 | 12.78° C | 94% | 1019.3 hPa | 0 mm | - | 19 W/m² | - |
| 1778163024 | 12.78° C | 93% | 1019.1 hPa | 0 mm | - | 16 W/m² | - |
| 1778162721 | 12.78° C | 93% | 1019 hPa | 0 mm | - | 14 W/m² | - |
| 1778162418 | 12.78° C | 94% | 1018.9 hPa | 0 mm | - | 12 W/m² | - |
| 1778162115 | 12.78° C | 94% | 1019 hPa | 0 mm | - | 11 W/m² | - |
| 1778161812 | 12.78° C | 94% | 1019.1 hPa | 0 mm | - | 9 W/m² | - |
| 1778161509 | 13.33° C | 95% | 1018.9 hPa | 0 mm | - | 8 W/m² | - |
| 1778161204 | 12.78° C | 94% | 1019 hPa | 0 mm | - | 7 W/m² | - |
| 1778160900 | 12.78° C | 93% | 1019 hPa | 0 mm | - | 5 W/m² | - |
| 1778160599 | 12.78° C | 93% | 1019 hPa | 0 mm | - | 4 W/m² | - |
| 1778160295 | 12.78° C | 93% | 1018.9 hPa | 0 mm | - | 3 W/m² | - |
| 1778159991 | 12.78° C | 93% | 1018.8 hPa | 0 mm | - | 2 W/m² | - |
| 1778159689 | 12.78° C | 93% | 1018.7 hPa | 0 mm | - | 2 W/m² | - |
| 1778159385 | 12.78° C | 93% | 1018.8 hPa | 0 mm | - | 1 W/m² | - |
* Rain latest hour (hover to see other rain measurements)
** Current wind speed in m/s (hover to see current wind gust speed)